Location: Chillicothe
(39.7950°N, 93.5520°W)
Time: 00:10:10
(UTC-06:00)

BEESAT - Pass Details

Date: 25 November 2019
Orbit: 700 x 709 km, 98.6° (Epoch: 11 December)

Event Time Altitude Azimuth Distance (km) Brightness Sun altitude
Rises 05:23:00 0° 183° (S) 3,072 ? -20.2°
Reaches altitude 10° 05:25:22 10° 190° (S) 2,158 ? -19.8°
Maximum altitude 05:29:49 41° 261° (W) 1,012 ? -18.9°
Enters shadow 05:30:41 37° 289° (WNW) 1,080 ? -18.8°
